Location: Saint Louis
(38.6272°N, 90.1978°W)
Time: 01:51:12
(UTC-05:00)

ISS - Pass Details

Date: 02 June 2013
Orbit: 401 x 404 km, 51.6° (Epoch: 24 July)

Event Time Altitude Azimuth Distance (km) Brightness Sun altitude
Rises 03:50:18 0° 317° (NW) 2,330 0.6 -17.1°
Maximum altitude 03:54:42 11° 13° (NNE) 1,418 0.3 -16.5°
Drops below altitude 10° 03:55:33 10° 28° (NNE) 1,460 0.7 -16.4°
Sets 03:59:05 0° 69° (ENE) 2,313 1.7 -15.9°
